星链-31739 (STARLINK-31739 )

导读

STARLINK-31739是美国太空探索技术公司 SpaceX 星链星座中的一颗卫星,于2024年5月14日发射升空,星链项目旨在为全球提供高速互联网接入服务,该卫星加入星座后,进一步扩展了星链网络覆盖范围,助力提升全球偏远地区网络连通能力。

基本信息
目录编号:
59766
目录名称:
STARLINK-31739
国际标识:
2024-091P
轨道中心:
EARTH
卫星名称:
星链-31739
卫星全名:
星链-31739 (STARLINK-31739 )
卫星状态:
在轨 (已飞行843 天)
发射日期:
2024-05-14 UTC
国别 :
美国 (US)
星等 :
--
轨道信息
数据来源 国际轨道数据
星历时间: 2026-09-02T15:33:07+0800
1天前
查看轨道信息
半长轴: 6840.893km
偏心率: 0.0001328
轨道倾角: 53.158°
近地点辐角 74.746°
升交点赤经 282.434°
平近点角 285.369°
近地点: 461.847km
远地点: 463.665km
周期: 93.849分钟
每日圈数: 15.343824
详细信息
固有亮度:
5
最大亮度:
1.5
卫星平台:
Starlink v2.0 mini
覆盖范围:
全球
运营商:
太空探索技术公司
运营商所在国:
美国
制造商(研发单位):
太空探索技术公司
制造商所在国:
美国
使用方式:
暂无
卫星简介
星链(Starlink)计划是由太空探索技术公司(SpaceX)提出的一个巨型低轨卫星互联网星座项目,计划在2019年至2024年间在太空搭建由约1.2万颗卫星组成的“星链”网络,其中1584颗将部署在地球上空550千米处的近地轨道,并从2020年开始工作。该卫星仍在工作。
2D轨道图
3D轨道图
轨道高度分析图
轨道倾角分析图
轨道综合分析图
查看轨道综合分析图
交会数据列表
事件ID 空间交会对象 最接近时刻(TCA) 交会距离 交会风险概率(CRP) 交会风险指数(CRI) 操作
CDM_260904-210105-976606-602921
2026-09-04T
21:01:20+0000
0.558 km
远距离
1.058429E-4 高风险 0.75
CDM_260904-043605-976606-602921
2026-09-04T
04:36:31+0000
0.941 km
远距离
2.11207E-5 中风险 0.61
CDM_260904-061005-976606-602921
2026-09-04T
06:10:19+0000
1.065 km
极远距离
1.37906E-5 中风险 0.58
CDM_260904-223505-976606-602921
2026-09-04T
22:35:08+0000
1.710 km
极远距离
2.906878E-6 低风险 0.44
CDM_260905-042405-233605-976621
2026-09-05T
04:24:28+0000
2.388 km
极远距离
1.689641E-6 低风险 0.4
CDM_260904-192705-976606-602921
2026-09-04T
19:27:33+0000
2.745 km
极远距离
1.039082E-6 低风险 0.35
CDM_260903-222005-211305-976621
2026-09-03T
22:20:39+0000
2.664 km
极远距离
1.038064E-6 低风险 0.35
CDM_260904-030205-976606-602921
2026-09-04T
03:02:44+0000
2.771 km
极远距离
1.024475E-6 低风险 0.35
CDM_260904-074405-976606-602921
2026-09-04T
07:44:07+0000
2.964 km
极远距离
9.415835E-7 极低风险 0.34